Погода в Врсаре

Хорватия     45°09′05″N   13°36′26″E
темп.,
°C
ветер,
м/с
пор.,
м/с
влажн.,
%
обл.,
%
осадки,
мм/ч
давл.,
гПа
погр.,
м
23 апреля, пт
пт2323:00+12юв33840 0.0 1020120
02:00+11в22812 0.0 102186
05:00+11ссв34850 0.0 1021122
08:00+11св22795 0.0 1022124
11:00+13з11685 0.0 1023237
14:00+14з44661 0.0 1023257
17:00+15зюз33681 0.0 1022133
20:00+14зсз22730 0.0 102216
24 апреля, сб
сб2423:00+13всв33740 0.0 102433
02:00+12всв23740 0.0 102363
05:00+12всв22711 0.0 102378
08:00+12вюв22622 0.0 102393
11:00+13зсз22644 0.0 1023232
14:00+14з44700 0.0 1022214
17:00+14зсз44670 0.0 1020162
20:00+14ю01710 0.0 102010
25 апреля, вс
вс2523:00+13всв11700 0.0 102015
02:00+13ссв22705 0.0 101932
05:00+12св337117 0.0 101877
08:00+13ссв23705 0.0 1018102
11:00+14ссз44665 0.0 1018252
14:00+15зсз55671 0.0 1018156
17:00+15юз22730 0.0 101798
20:00+14юв11744 0.0 101710
26 апреля, пн
пн2623:00+14в337570 0.0 101723
02:00+13в2273100 0.0 101625
05:00+12всв3367100 0.0 101580
08:00+13вюв2266100 0.0 101598
11:00+15ююв1265100 0.0 1015167
14:00+15ююз1270100 0.0 101469
17:00+15св1268100 0.0 1013147
20:00+14юв4773100 0.0 1013325
27 апреля, вт
вт2723:00+12юв4788100 0.9 1013401
02:00+12вюв4686100 1.9 1012331
05:00+11вюв4690100 2.2 1010327
08:00+11всв3590100 5.0 1010247
11:00+12св4688100 3.6 1009306
14:00+12св4689100 7.6 1008407
17:00+11ссв3490100 5.3 1007303
20:00+11ссв3488100 8.1 1007225